Вернуться в каталог

STARLINK-34406

АктивенСвязьVLEO
NORAD 64705·PAYLOAD·🇺🇸 United States

Запущен Jun 28, 2025 с Vandenberg Space Force Base

Loading…

Ближайшие Пролёты (ближайшие 24 часа)

TLE

СвежийSource: CelesTrak SupGP

Эпоха: Sep 14, 2026, 21:43 UTC

1 64705C 25142K   26257.90534722 -.00014777  00000+0 -51384-3 0  2578
2 64705  70.0011 195.8997 0002945 269.0959 339.0029 15.29599586    17

Отслеживайте STARLINK-34406 в реальном времени с AllMySat

Download on the App Store